Vertical_Velocity
-4 -4 -3 -1 -1 -3 -5 2 3 -1 -6 -4 -3 -3 -4 -6 -6 -5 -2 -1 -1 -2 -2 -2 -2 -1 -1 -1 -1 -1 -1 -1 -1 -1 -1 -1 -2 -2 -3 -3 -4 -4 -4 -4 -3 -2 -2 -1 0 1 1 2 1 1 0 0 -1 -2 -3 -3 -3 -3 -3 -3 -2 -2 -2 -2 -2 -2 -2 -2 -1 -1 -1 -1 -1 -2 -2 -1 0 1 1 1 1 0
-2 -3 -5 -3 -1 -1 -6 1 3 2 -4 -4 -2 -1 -2 -5 -7 -6 -3 -2 -2 -2 -2 -2 -1 -1 -1 -1 -1 -1 -1 -1 -1 -1 -1 -1 -1 -1 -2 -2 -3 -3 -4 -4 -4 -4 -2 0 1 1 1 1 1 1 0 -0 -1 -2 -2 -3 -3 -3 -3 -2 -2 -1 -1 -1 -2 -2 -1 -1 -1 -1 -0 -1 -1 -2 -3 -1 0 1 1 1 1 1
0 -4 -6 -4 -3 -3 -5 -2 2 4 2 -0 -0 0 -0 -4 -6 -6 -4 -3 -3 -2 -2 -1 -1 -1 -1 -1 -1 -0 -1 -1 -1 -1 -1 -1 -1 -1 -1 -1 -1 -2 -2 -3 -4 -4 -1 2 3 2 1 1 1 0 0 -0 -1 -1 -1 -2 -2 -2 -2 -2 -1 -1 -1 -1 -1 -1 -1 -1 -1 -0 -0 -1 -1 -2 -3 -1 1 2 2 2 2 1
3 -2 -6 -3 -3 -5 -5 -3 -2 -0 3 3 3 2 2 -1 -4 -4 -3 -3 -3 -3 -3 -2 -1 -1 -2 -1 -1 -0 0 0 -0 -1 -1 -1 -1 -1 -0 -1 -1 -1 -1 -2 -3 -3 -2 2 3 3 1 1 0 -0 -0 -0 -0 -1 -0 -0 -1 -1 -1 -1 -0 -0 -0 -1 -1 -1 -2 -1 -1 -0 0 -0 -1 -2 -3 0 2 3 2 2 2 1
5 1 -3 -1 -2 -5 -5 -2 -3 -4 -2 1 2 3 4 2 -1 -2 -2 -2 -3 -3 -4 -3 -2 -2 -2 -2 -1 -0 1 1 0 -0 -1 -1 -1 -1 -0 -0 -0 -0 -1 -1 -2 -2 -2 0 2 3 2 1 1 0 -0 -0 -1 -0 -0 -0 0 0 0 0 0 0 0 -0 -1 -1 -1 -1 -1 -0 0 -0 -2 -3 -2 3 4 4 3 3 2 1
4 3 -1 -0 -2 -4 -4 -2 -2 -2 -4 -5 -3 0 2 2 2 1 0 -1 -2 -3 -4 -3 -3 -2 -2 -2 -2 -1 0 0 0 0 -0 -0 -0 -0 -0 0 0 0 -0 -0 -1 -1 -2 -1 0 2 2 1 1 0 -0 -1 -1 -1 -1 -0 0 1 1 1 1 0 0 -0 -1 -1 -1 -1 -1 -0 -0 -0 -2 -2 1 5 6 5 4 3 1 0
1 3 3 0 -2 -3 -1 -2 -0 1 -0 -6 -7 -5 -2 0 2 3 2 1 -1 -3 -5 -4 -3 -2 -1 -1 -1 -1 -1 -1 -0 0 0 0 -0 -0 0 0 0 0 0 0 -0 -0 -1 -1 -0 1 1 1 1 1 0 -1 -1 -1 -1 -1 0 1 1 1 1 0 -0 -1 -1 -1 -0 -0 -0 0 0 -1 -1 -1 3 5 5 5 4 3 1 -0
-2 -0 5 2 -2 -4 -2 -1 1 2 1 -4 -6 -7 -7 -3 -0 2 3 3 1 -1 -3 -5 -4 -2 0 1 1 -1 -2 -2 -1 -1 -0 0 0 0 0 0 0 0 1 1 0 0 0 -0 0 0 0 0 0 0 0 -0 -1 -2 -2 -1 -0 0 0 0 0 0 -0 -1 -1 -0 -0 0 0 0 0 -0 -1 0 2 3 4 4 4 2 1 -0
-2 -2 1 3 2 -2 -5 -4 1 5 3 -2 -5 -7 -7 -6 -4 -2 1 1 2 2 1 -2 -4 -3 0 2 2 -0 -2 -2 -1 -1 -1 -0 0 0 0 0 0 0 1 1 1 1 0 0 0 0 1 0 -0 -1 -0 -0 -1 -1 -2 -1 -0 0 -0 -1 -1 -1 -1 -0 -0 -0 0 1 1 1 1 1 0 0 1 2 2 3 3 2 1 -1
-1 -1 -2 -0 2 3 -1 -6 -3 4 8 1 -4 -5 -3 -5 -6 -7 -5 -3 0 4 5 1 -2 -3 -1 2 2 1 -1 -2 -1 -1 -1 -1 -0 0 0 0 -0 0 1 1 1 1 1 0 0 0 1 0 -0 -1 -1 -0 -0 -1 -1 -1 0 0 -0 -1 -1 -1 -1 -1 -0 -0 0 1 1 1 1 1 1 1 0 1 1 1 1 1 1 -0
-3 -1 0 -3 -1 1 3 -3 -3 1 7 3 -2 -5 -1 1 -1 -5 -10 -10 -4 3 6 2 -0 -1 -1 0 1 2 -0 -2 -2 -1 -0 -1 -1 -0 -0 -0 -0 -0 0 1 1 1 1 1 0 0 1 1 0 -0 -1 0 0 -0 -1 -0 0 1 -0 -1 -1 -2 -1 -1 -1 -0 0 1 1 2 2 2 1 1 0 0 0 1 1 1 1 -0
-4 -3 -2 -3 -3 -1 -0 -1 -1 0 3 2 -1 -5 -5 2 4 1 -9 -13 -8 -1 3 1 1 1 1 1 1 1 0 -1 -1 -1 1 0 -0 -0 -0 -0 -0 -0 0 0 1 1 1 1 0 0 0 1 1 1 0 1 1 1 1 1 1 1 1 -0 -1 -1 -1 -1 -1 -1 -0 1 1 2 2 2 1 1 0 0 0 1 1 1 1 0
-3 -3 -4 -5 -4 -2 -1 -1 -2 -1 1 2 0 -3 -6 -1 2 1 -7 -11 -9 -4 0 -2 -2 -1 4 5 4 2 -0 -2 -1 -0 2 1 0 0 1 0 -1 -1 -0 0 0 0 0 1 1 0 -1 1 2 2 1 1 2 2 2 2 2 2 1 1 -0 -1 -1 -1 -1 -0 -0 0 1 1 2 2 1 1 1 1 1 1 1 1 1 0
-3 -2 -3 -5 -5 -3 -0 -0 -1 -2 -1 1 1 -1 -3 -2 -1 -1 -3 -9 -8 -4 1 -5 -7 -5 2 6 7 5 2 -1 -2 -1 1 1 1 1 2 0 -1 -1 -0 0 -0 -1 -0 2 2 0 -1 1 2 2 1 1 2 2 2 2 2 2 2 1 0 -1 -1 -1 -0 -0 -0 -0 0 1 1 2 2 1 1 1 1 1 1 1 1 0
-2 -2 -4 -5 -4 -2 -0 1 -1 -2 -2 1 2 1 -1 -1 -0 -0 -1 -8 -8 -4 1 -6 -9 -7 -3 3 7 9 6 1 -1 -1 -1 -0 2 4 4 1 -1 -1 1 1 -1 -1 0 2 2 0 -1 1 2 3 2 1 1 2 3 3 3 3 3 2 1 -0 -1 -1 -0 0 0 -0 -0 0 1 1 1 2 2 2 2 1 1 1 1 1
-1 -1 -6 -6 -4 -2 1 2 0 -2 -2 1 2 1 0 -1 -0 1 -0 -6 -5 -2 -1 -6 -10 -11 -11 1 9 12 9 4 0 -2 -2 -2 2 6 5 2 0 -0 1 1 1 1 2 2 1 -0 -1 0 2 3 3 1 1 2 2 3 4 4 5 3 2 -0 -1 -1 -0 0 1 0 -0 -0 -0 1 1 1 2 2 2 2 1 1 0 0
-2 -3 -5 -5 -5 -3 1 3 1 -1 -0 1 1 1 1 -1 -1 0 -1 -3 -2 -1 -3 -5 -8 -13 -19 -7 4 12 12 7 4 1 -1 -3 0 5 6 3 1 -1 -1 1 2 3 4 3 2 1 0 1 2 4 4 2 1 2 2 3 4 5 6 5 3 1 -1 -1 -0 0 1 0 -0 -0 -0 0 1 1 2 2 2 3 2 2 1 0
-2 -3 -5 -4 -4 -3 -1 0 -0 -0 1 0 0 0 0 0 1 0 -2 0 0 -1 -4 -1 -3 -7 -11 -13 -9 -1 12 10 8 6 2 -5 -3 4 7 4 1 -1 -1 0 2 4 5 4 3 3 2 3 4 6 5 3 3 3 3 4 5 6 7 6 4 2 -0 -1 -0 0 1 1 0 -0 -1 -0 0 1 1 2 2 2 2 2 1 1
-2 -1 -4 -6 -5 -3 -2 -2 -1 -0 1 -0 -0 -1 -5 -1 2 1 -5 0 1 -0 -2 -1 -3 -5 -2 -10 -10 -4 6 2 4 7 3 -6 -3 3 8 3 1 -0 -0 -1 1 4 6 5 5 5 4 5 6 7 8 7 6 5 4 5 7 8 9 8 5 3 0 -0 -0 0 1 1 1 -0 -0 -0 0 1 1 1 2 2 2 2 2 1
-5 -2 -1 -3 -5 -6 -5 -1 0 1 1 3 1 -3 -9 -2 0 -1 -5 1 1 -1 1 -1 -5 -6 0 -6 -4 1 7 -0 -3 -2 0 -3 -1 4 9 3 0 0 1 -2 0 4 6 6 6 6 5 6 6 6 8 10 9 8 7 7 8 9 11 11 7 4 1 0 0 0 1 1 1 0 -0 -0 0 0 1 1 1 2 2 2 2 1
-10 -8 0 1 -5 -10 -8 -1 1 1 1 3 1 -3 -6 -2 -3 -4 -2 1 -2 -4 2 -2 -6 -6 4 -2 -2 3 14 3 -5 -7 -2 -4 -5 -2 8 4 1 1 2 -0 1 4 5 5 5 5 5 6 6 5 5 8 10 10 9 9 8 9 11 12 9 5 1 0 0 1 1 1 1 1 0 0 0 0 1 1 1 2 2 2 2 1
-10 -8 0 2 -3 -9 -8 -2 -0 0 1 1 -2 -4 -2 -1 -5 -6 1 2 -3 -7 -2 -3 -5 -4 2 -4 -3 4 16 2 -2 2 8 -6 -15 -13 7 4 3 4 5 1 2 4 6 5 4 4 4 6 6 4 3 4 7 10 11 10 9 9 10 11 8 5 2 1 1 1 2 1 1 1 1 0 0 0 1 1 1 1 2 2 2 1
-6 -5 1 4 1 -2 -3 -1 0 1 3 0 -3 -3 2 1 -4 -7 -1 2 -2 -7 -4 -3 -3 -3 -4 -6 -4 1 9 3 1 3 9 -3 -14 -15 -0 -0 3 5 6 3 3 5 7 6 4 4 5 6 6 4 2 2 3 5 8 8 8 8 8 8 6 3 1 1 2 2 3 2 2 1 1 1 1 1 1 1 1 2 2 2 2 2
-3 -4 -0 3 3 1 1 1 2 3 4 1 -0 -1 2 1 -3 -5 -2 -1 -3 -7 -6 -3 -4 -7 -9 -3 -3 -3 2 10 9 4 -1 -5 -7 -6 -5 -7 -4 0 3 5 5 5 7 7 5 4 6 5 5 4 2 2 1 2 4 5 6 6 6 5 4 2 0 1 2 4 4 3 2 1 1 1 1 1 1 1 1 2 2 2 2 2
-2 -4 -4 -1 0 0 -1 0 1 3 3 2 2 2 4 3 0 -2 -3 -3 -5 -7 -7 -7 -10 -13 -10 -1 -6 -10 -1 17 14 3 -5 -5 -4 -2 -1 -6 -8 -8 -3 4 5 5 6 7 7 6 6 5 5 4 3 3 2 2 2 3 3 4 4 3 1 0 -1 1 3 6 6 4 3 1 1 1 1 1 1 2 2 2 1 2 2 2
-3 -5 -6 -4 -2 -2 -2 -2 -0 1 3 3 2 3 6 6 4 2 -0 -0 -0 -2 -6 -9 -11 -10 -5 -6 -14 -16 0 15 12 2 -0 0 -3 -3 5 6 1 -5 -6 1 2 2 4 8 8 7 5 4 5 5 3 4 4 4 3 3 3 4 4 3 2 0 -1 1 4 7 9 7 4 2 0 0 1 1 2 2 2 2 1 2 2 2
-3 -5 -6 -4 -3 -3 -3 -2 -1 0 2 3 3 5 8 7 2 -3 -6 2 6 3 -8 -8 -5 -3 -3 -10 -17 -15 1 6 4 2 9 6 -3 -8 2 14 12 4 -1 -1 -3 -3 1 6 9 8 4 4 5 6 4 5 5 4 3 3 3 5 7 7 5 2 -1 0 4 8 11 10 7 3 0 -0 1 1 2 2 2 2 1 2 2 2
-3 -6 -6 -4 -3 -2 -2 -2 -1 0 1 2 4 7 12 8 -2 -11 -13 7 12 6 -11 -4 1 1 -6 -11 -12 -8 1 -4 -3 3 16 7 -7 -13 -0 11 6 -2 -0 -0 -3 -5 -2 3 7 8 4 3 5 7 5 5 5 4 3 2 3 5 10 12 9 5 1 1 3 7 11 12 10 6 1 -0 0 1 2 3 2 2 2 2 1 1
-3 -5 -6 -4 -2 -1 -2 -2 -1 1 3 3 5 9 14 10 -2 -12 -13 10 14 5 -12 -2 3 2 -7 -8 -5 -2 -3 -10 -5 6 18 3 -11 -14 6 7 -4 -11 0 2 -2 -7 -7 -2 5 8 2 2 5 7 5 5 4 3 2 2 1 3 9 14 12 8 4 2 2 5 10 13 12 9 3 0 0 1 3 3 3 2 2 1 -0 -0
-3 -4 -5 -2 0 0 -3 -3 -1 2 4 4 6 9 14 13 4 -5 -7 8 9 1 -9 -1 3 3 -2 -3 -3 -4 -9 -8 -1 8 12 -0 -9 -6 13 1 -9 -10 7 6 -1 -9 -14 -6 2 4 -1 3 5 6 5 5 3 2 2 1 0 1 6 12 14 11 7 3 2 4 9 13 14 11 4 1 -0 1 3 4 3 2 1 -0 -1 -1
-4 -4 -5 -2 1 1 -2 -2 -1 0 2 3 5 7 11 12 9 4 2 5 3 -1 -5 -2 2 5 4 2 -3 -8 -12 -4 3 7 7 0 -2 1 11 -5 -10 -4 12 6 -1 -7 -11 -7 -6 -4 -1 5 6 5 5 5 3 2 1 1 -1 -1 1 8 12 12 9 5 3 4 9 14 15 12 6 1 -1 -0 3 4 4 2 1 -0 -1 -2
-6 -6 -5 -3 -1 -0 -1 -2 -1 -1 -1 1 2 4 6 8 8 8 8 6 3 -0 -3 -2 1 4 5 2 -3 -9 -11 -2 4 7 7 4 3 3 3 -8 -7 0 8 1 -2 -2 2 -3 -10 -12 -1 7 8 6 5 5 4 2 1 0 -2 -3 -2 5 10 12 10 7 5 6 11 15 15 13 7 2 -1 -1 2 4 4 3 2 0 -1 -2
-7 -7 -6 -4 -3 -2 -2 -2 -2 -2 -2 -1 0 1 2 3 4 6 7 6 4 2 -1 -1 0 2 2 1 -4 -8 -10 -4 2 6 8 6 5 3 -2 -8 -4 3 8 -0 -3 -0 7 3 -6 -13 -8 4 9 9 5 4 3 3 2 -0 -2 -3 -2 3 7 10 10 8 8 10 14 17 17 15 10 4 0 -1 2 4 4 3 3 2 0 -0
-7 -7 -6 -5 -4 -4 -3 -2 -3 -3 -2 -1 -0 0 1 1 1 2 4 5 5 4 2 1 1 1 1 1 -3 -6 -9 -6 -1 4 5 5 6 4 0 -5 -2 6 14 6 2 2 4 6 3 -4 -11 1 9 10 4 3 3 2 1 -1 -2 -1 -0 1 4 6 8 8 9 12 16 18 19 18 14 7 2 0 1 3 4 4 5 4 2 2
-7 -6 -4 -4 -4 -4 -3 -3 -3 -4 -3 -2 -1 -0 -0 0 0 1 1 3 3 4 3 2 2 2 3 2 -1 -5 -9 -6 -1 4 4 5 9 12 10 1 1 6 13 11 8 6 4 12 13 9 0 5 7 7 3 3 2 2 0 -1 -0 1 1 0 1 4 6 7 8 11 14 16 17 18 16 10 4 1 1 3 5 6 7 5 3 3
-7 -6 -4 -3 -4 -4 -4 -3 -3 -3 -3 -2 -2 -1 -0 -0 -0 -1 -1 0 1 2 2 1 1 2 2 2 -1 -4 -8 -4 0 4 4 4 10 15 16 8 5 5 7 8 7 7 10 20 22 18 10 9 8 7 5 4 2 1 -0 1 2 2 2 1 1 3 5 6 7 9 12 12 13 15 15 10 5 2 2 4 7 8 8 5 4 3
-7 -6 -3 -2 -2 -3 -4 -3 -3 -2 -2 -2 -1 -1 -0 -0 -0 -1 -1 -1 -0 0 1 1 0 -0 -0 0 -1 -3 -4 -2 1 2 3 1 3 6 8 6 6 7 8 7 4 3 9 23 26 20 10 8 8 8 7 5 3 1 1 2 2 2 1 0 1 2 4 4 5 8 10 9 11 14 15 11 6 4 4 7 8 9 8 5 4 3
-5 -5 -3 -2 -1 -2 -3 -3 -3 -2 -1 -1 -1 -1 -1 -1 -1 -0 -1 -1 -0 0 0 0 -0 -1 -1 -1 -1 -2 -2 -0 0 1 2 2 1 -1 -2 -0 4 9 15 13 8 5 7 22 24 18 6 6 7 7 6 5 4 2 3 3 2 1 1 -0 -0 0 2 3 6 9 11 11 12 14 15 10 5 2 3 5 6 6 4 3 3 3
-2 -3 -2 -0 0 -0 -2 -3 -3 -2 -0 -1 -1 -2 -2 -2 -2 -2 -1 -1 -0 -0 0 1 0 -1 -1 -1 -1 -1 -1 -1 -2 -1 0 3 5 4 0 -1 1 6 13 15 15 13 13 19 18 12 3 3 4 6 7 6 4 3 4 4 3 1 1 1 -0 -1 0 3 6 9 12 13 14 14 12 6 2 -1 -2 -1 -0 -0 -1 -0 0 1
-1 -1 -1 1 2 2 0 -2 -2 -2 -1 -2 -3 -3 -3 -3 -3 -2 -1 -1 -1 -0 -0 0 0 -0 -1 -1 -1 -1 -1 -2 -2 -2 -1 2 5 8 8 3 -0 -0 3 9 15 20 23 19 11 3 -1 1 3 5 7 5 4 4 4 3 1 1 2 1 -1 -1 -0 1 4 7 10 12 13 12 9 3 -1 -3 -2 -2 -2 -2 -2 -1 -1 -1
-1 -1 -1 1 3 3 2 0 -0 -1 -1 -2 -3 -4 -5 -4 -3 -2 -2 -2 -1 -1 -0 0 0 -0 -1 -1 -1 -0 -0 -1 -1 -1 -1 -0 3 7 8 4 1 -1 1 3 10 20 30 22 10 1 -0 2 4 4 3 3 3 3 2 0 0 1 1 -1 -2 -1 0 1 2 4 8 11 12 11 8 3 -0 -1 0 3 3 2 2 2 1 0
-1 -1 -1 1 2 2 2 2 2 2 1 0 -1 -3 -4 -2 -1 -1 -2 -3 -2 -1 1 2 1 -0 -3 -4 -3 -1 1 0 -1 -1 -1 -1 1 3 4 3 2 1 2 1 5 13 25 22 13 4 3 6 5 3 -0 1 1 1 0 3 5 7 6 2 1 1 1 1 2 4 8 11 13 13 10 5 2 2 4 6 6 5 4 3 3 3
-1 -1 -0 1 1 1 1 2 2 1 -0 -1 -2 -2 -2 1 2 2 0 -2 -2 -1 1 2 2 1 -0 -4 -4 -3 -1 0 1 2 1 -0 0 2 5 4 3 2 2 2 3 7 14 15 10 4 3 6 5 2 -1 -2 -3 -2 1 6 7 5 2 1 1 1 -0 1 2 4 6 9 12 14 13 10 7 5 6 6 6 5 4 3 3 4
-1 -1 -1 -0 0 1 2 1 0 -0 0 -0 -1 -2 -0 2 3 3 1 -1 -2 -1 2 2 3 3 1 -2 -4 -4 -2 -0 1 2 1 -1 1 4 7 5 4 3 2 3 2 2 5 6 3 1 2 3 3 1 -2 -4 -5 -3 4 8 7 2 -4 -4 -4 -4 -3 1 3 5 5 8 11 13 14 14 12 10 9 8 7 6 5 5 6 6
-1 -1 -1 -0 0 0 -0 -1 -0 1 1 0 -1 -1 1 3 4 3 1 -1 -2 -1 1 3 4 4 -0 -4 -4 -3 -1 -1 0 0 -1 -1 2 7 10 7 5 3 2 1 -1 -2 -2 -1 -1 -1 1 3 3 2 -2 -6 -5 0 11 13 11 6 1 1 -0 -1 0 3 4 5 7 9 11 12 12 12 12 11 11 10 9 7 5 5 6 6
-1 -1 -0 0 1 0 -0 0 1 1 -0 -1 -1 -0 1 3 3 2 -0 -1 -1 -1 -1 2 4 3 -3 -5 -4 -1 -0 -0 0 0 -0 -0 2 6 9 7 5 4 3 -1 -3 -4 -3 -3 -2 -1 1 7 9 6 -3 -6 -3 6 16 17 14 8 3 2 2 3 5 5 5 6 8 9 10 10 10 10 10 10 11 11 9 7 5 4 4 4
-1 -0 0 1 1 1 1 1 1 1 -1 -2 -2 -1 1 2 1 0 -1 -1 -0 -0 -1 1 2 1 -3 -3 -2 1 1 -0 -1 -1 -0 -0 1 2 4 4 5 4 2 -1 -3 -3 -3 -3 -2 1 4 11 12 6 -3 -4 2 11 19 18 13 6 -1 -3 -2 0 3 6 8 10 11 10 10 9 8 8 9 11 12 11 10 8 6 6 5 5
-0 -0 0 1 1 1 0 1 1 0 -2 -3 -2 -1 0 1 2 0 -2 -1 -0 1 1 1 0 -0 -2 -2 -1 1 2 0 -1 -1 -1 -1 0 1 2 4 4 3 1 -2 -3 -3 -4 -3 1 5 10 13 10 3 -4 -1 7 15 19 17 12 5 -3 -4 -3 -1 2 7 10 12 11 10 8 6 6 8 9 11 11 10 8 8 8 7 6 4
1 1 0 1 0 -0 -1 0 0 -1 -3 -3 -3 -2 0 2 4 3 0 -0 0 2 2 3 2 1 -1 -2 -2 -0 2 2 1 -0 -1 -1 -1 1 3 4 4 3 0 -3 -4 -4 -4 -1 5 11 17 15 9 4 1 5 11 17 20 18 12 4 -2 -3 -2 0 3 7 10 11 11 10 7 6 6 7 8 8 8 7 7 7 7 6 4 2
2 2 1 1 0 -0 -1 -1 -1 -2 -3 -3 -3 -2 -0 2 3 3 2 1 1 1 1 2 3 3 1 -2 -1 -0 2 2 1 -1 -2 -2 -2 -0 2 3 3 2 1 -2 -3 -2 -0 3 7 12 16 14 12 10 10 12 15 18 21 17 10 3 -2 -2 -0 2 4 7 10 11 11 11 12 12 13 11 9 7 6 6 6 7 7 5 2 0
2 2 2 1 0 -1 -2 -2 -2 -2 -3 -2 -2 -1 -1 0 1 2 3 2 1 1 -1 0 1 2 2 0 0 1 0 -1 -2 -3 -5 -4 -2 -0 1 2 3 3 2 -1 -2 -2 -1 6 9 10 7 11 13 14 13 11 12 15 18 13 7 1 -2 -1 1 3 4 7 10 11 10 9 10 11 12 12 11 9 8 7 7 7 6 3 1 0
Height
3013 3013 3012 3012 3013 3013 3013 3015 3015 3015 3015 3016 3016 3016 3015 3014 3014 3013 3013 3013 3012 3011 3011 3010 3010 3010 3011 3011 3011 3012 3012 3012 3012 3013 3013 3013 3013 3013 3013 3013 3014 3014 3015 3016 3016 3017 3017 3018 3018 3019 3019 3020 3020 3021 3021 3022 3023 3023 3024 3024 3025 3025 3025 3026 3027 3027 3028 3028 3029 3029 3029 3030 3031 3031 3031 3032 3032 3033 3033 3033 3034 3034 3035 3036 3036 3037
3009 3008 3008 3007 3008 3008 3008 3009 3010 3011 3010 3011 3012 3012 3012 3011 3010 3010 3010 3009 3009 3008 3008 3007 3007 3007 3007 3007 3008 3008 3008 3008 3009 3009 3009 3009 3010 3010 3010 3010 3011 3011 3012 3012 3013 3013 3014 3014 3015 3016 3016 3016 3017 3018 3018 3019 3019 3020 3021 3022 3022 3023 3023 3023 3024 3024 3025 3026 3026 3026 3027 3027 3028 3028 3029 3030 3030 3030 3031 3031 3032 3033 3033 3034 3034 3035
3006 3005 3003 3003 3002 3002 3002 3003 3004 3006 3006 3006 3007 3007 3008 3007 3007 3006 3006 3006 3005 3005 3005 3004 3004 3003 3003 3003 3004 3004 3005 3005 3005 3005 3006 3006 3006 3006 3007 3007 3007 3008 3008 3009 3009 3010 3011 3011 3012 3012 3013 3013 3013 3014 3015 3016 3016 3017 3018 3018 3019 3020 3020 3021 3021 3022 3022 3023 3023 3024 3024 3025 3025 3026 3027 3027 3028 3028 3028 3029 3030 3030 3031 3032 3032 3033
3003 3001 3000 2999 2998 2997 2997 2997 2998 2999 3000 3001 3002 3003 3003 3003 3002 3002 3002 3002 3002 3001 3001 3001 3000 3000 3000 3000 3000 3000 3001 3001 3002 3002 3002 3002 3002 3003 3003 3003 3004 3004 3005 3005 3006 3007 3007 3008 3008 3009 3009 3010 3010 3011 3012 3012 3013 3014 3015 3015 3016 3017 3018 3018 3019 3019 3020 3020 3021 3021 3021 3022 3023 3023 3024 3025 3025 3026 3026 3027 3028 3028 3029 3030 3030 3031
2999 2997 2996 2995 2994 2993 2992 2992 2992 2992 2993 2994 2996 2997 2998 2998 2998 2998 2998 2997 2997 2997 2997 2997 2997 2996 2996 2996 2996 2997 2997 2998 2998 2998 2998 2998 2998 2999 2999 3000 3000 3001 3001 3002 3003 3003 3004 3004 3005 3006 3006 3007 3007 3008 3008 3009 3010 3011 3012 3013 3013 3014 3015 3015 3016 3017 3017 3018 3018 3018 3019 3019 3020 3021 3021 3022 3023 3023 3024 3025 3026 3027 3027 3028 3028 3029
2994 2993 2992 2991 2990 2989 2988 2988 2987 2987 2987 2988 2989 2990 2992 2993 2993 2993 2993 2993 2993 2993 2992 2993 2993 2992 2992 2992 2992 2993 2993 2993 2993 2994 2994 2994 2994 2995 2995 2996 2996 2997 2998 2998 2999 2999 3000 3001 3002 3003 3003 3003 3004 3005 3005 3006 3007 3008 3009 3010 3010 3011 3012 3012 3013 3013 3014 3015 3015 3016 3016 3017 3017 3018 3019 3020 3020 3021 3023 3024 3024 3024 3025 3025 3026 3027
2990 2989 2988 2987 2986 2985 2984 2984 2983 2983 2982 2982 2982 2983 2984 2986 2988 2988 2988 2988 2988 2988 2988 2988 2988 2988 2988 2988 2988 2988 2988 2989 2989 2989 2990 2990 2990 2991 2991 2992 2993 2993 2994 2994 2995 2996 2997 2997 2998 2999 3000 3000 3001 3002 3002 3003 3004 3005 3006 3007 3007 3008 3009 3009 3010 3011 3011 3012 3013 3013 3013 3014 3015 3015 3016 3017 3018 3019 3021 3021 3022 3022 3023 3023 3024 3024
2985 2985 2984 2983 2982 2981 2980 2979 2979 2979 2978 2977 2977 2977 2978 2979 2981 2982 2983 2984 2984 2983 2983 2983 2983 2984 2984 2984 2984 2984 2984 2984 2985 2985 2986 2986 2986 2986 2987 2988 2988 2989 2990 2991 2991 2992 2993 2993 2994 2995 2996 2997 2998 2998 2999 3000 3001 3002 3003 3003 3004 3005 3006 3006 3007 3008 3008 3009 3009 3010 3011 3011 3012 3013 3013 3015 3016 3017 3018 3018 3019 3020 3021 3021 3022 3022
2981 2980 2980 2979 2978 2977 2976 2975 2975 2975 2974 2973 2972 2972 2972 2973 2974 2976 2977 2978 2978 2979 2978 2978 2978 2979 2980 2980 2980 2979 2979 2980 2980 2981 2981 2982 2982 2982 2983 2983 2984 2985 2986 2986 2987 2988 2989 2990 2991 2992 2993 2993 2994 2995 2996 2997 2998 2998 2999 3000 3001 3002 3003 3003 3004 3004 3005 3006 3006 3007 3008 3008 3009 3010 3011 3012 3013 3014 3015 3015 3016 3017 3018 3019 3019 3020
2977 2976 2975 2975 2974 2973 2972 2971 2971 2971 2970 2968 2967 2967 2967 2967 2968 2968 2970 2971 2973 2974 2974 2973 2974 2974 2975 2975 2975 2975 2975 2975 2975 2976 2977 2977 2978 2978 2978 2979 2980 2980 2981 2982 2983 2984 2985 2986 2987 2988 2989 2990 2991 2991 2992 2993 2994 2995 2996 2997 2998 2998 2999 3000 3001 3002 3002 3003 3003 3004 3005 3006 3006 3007 3008 3009 3010 3011 3012 3013 3013 3014 3015 3016 3017 3018
2973 2972 2971 2970 2969 2968 2968 2966 2966 2965 2965 2964 2963 2962 2962 2962 2962 2962 2962 2963 2966 2968 2968 2968 2969 2969 2970 2970 2971 2971 2970 2970 2971 2971 2972 2972 2973 2973 2974 2974 2975 2976 2977 2978 2979 2980 2981 2982 2983 2984 2985 2986 2987 2988 2989 2989 2990 2992 2993 2993 2994 2995 2996 2997 2998 2998 2999 3000 3001 3001 3002 3003 3003 3004 3005 3007 3008 3008 3009 3010 3011 3012 3013 3014 3014 3015
2968 2967 2966 2965 2965 2964 2963 2962 2961 2960 2960 2959 2958 2958 2957 2958 2957 2956 2955 2956 2958 2960 2962 2963 2963 2964 2965 2965 2966 2966 2966 2965 2966 2966 2967 2967 2968 2968 2969 2970 2971 2972 2973 2973 2974 2975 2976 2978 2979 2980 2981 2982 2983 2984 2985 2986 2987 2988 2989 2990 2991 2991 2992 2993 2994 2995 2996 2997 2998 2998 2999 3000 3001 3002 3003 3003 3004 3005 3006 3007 3008 3009 3010 3011 3012 3013
2962 2962 2961 2960 2959 2959 2958 2957 2956 2955 2955 2954 2953 2953 2952 2952 2951 2950 2949 2949 2950 2952 2954 2955 2957 2958 2960 2961 2961 2961 2960 2960 2961 2961 2962 2963 2963 2964 2964 2965 2965 2967 2968 2968 2969 2971 2972 2973 2974 2975 2977 2978 2979 2980 2981 2982 2983 2984 2985 2986 2987 2988 2988 2989 2991 2992 2993 2994 2995 2996 2996 2997 2998 2999 3000 3001 3002 3003 3003 3004 3005 3007 3008 3008 3009 3010
2956 2956 2955 2954 2953 2953 2953 2952 2951 2950 2950 2949 2949 2948 2947 2946 2946 2945 2944 2944 2944 2945 2946 2947 2948 2951 2954 2956 2956 2956 2956 2955 2955 2956 2957 2958 2958 2959 2960 2960 2960 2961 2963 2963 2964 2965 2967 2969 2970 2971 2972 2974 2975 2976 2977 2978 2979 2980 2982 2983 2983 2984 2985 2986 2988 2989 2990 2991 2992 2993 2993 2994 2995 2996 2997 2998 2999 3000 3001 3002 3003 3004 3005 3006 3007 3008
2950 2949 2949 2948 2948 2948 2947 2947 2946 2945 2945 2944 2944 2943 2942 2941 2941 2940 2939 2938 2938 2938 2939 2938 2940 2943 2946 2949 2950 2951 2951 2950 2950 2951 2952 2953 2953 2954 2955 2955 2955 2956 2958 2958 2959 2960 2962 2964 2965 2966 2968 2969 2971 2972 2973 2974 2975 2977 2978 2979 2980 2981 2982 2983 2984 2985 2987 2988 2989 2990 2990 2991 2992 2993 2994 2995 2996 2997 2998 2999 3000 3001 3002 3003 3004 3005
2944 2944 2943 2942 2942 2942 2942 2941 2941 2940 2939 2939 2938 2938 2937 2937 2936 2935 2934 2933 2933 2933 2933 2932 2933 2934 2937 2940 2943 2945 2945 2945 2944 2945 2946 2947 2948 2949 2950 2950 2950 2951 2953 2953 2954 2955 2957 2958 2960 2961 2963 2965 2966 2968 2969 2970 2972 2973 2974 2975 2976 2977 2978 2979 2980 2982 2983 2985 2986 2987 2988 2988 2989 2990 2991 2992 2993 2994 2996 2997 2998 2999 3000 3001 3002 3003
2939 2938 2938 2937 2937 2937 2936 2936 2936 2935 2934 2934 2933 2933 2932 2932 2931 2930 2929 2929 2928 2928 2927 2928 2927 2927 2927 2931 2934 2938 2939 2939 2939 2939 2941 2941 2943 2944 2945 2945 2945 2946 2947 2949 2950 2951 2952 2953 2955 2956 2958 2960 2962 2963 2965 2966 2968 2969 2970 2971 2973 2973 2974 2975 2977 2978 2980 2981 2983 2983 2984 2985 2987 2988 2988 2989 2991 2992 2993 2994 2995 2996 2998 2999 3000 3000
2933 2933 2933 2932 2931 2931 2931 2931 2930 2930 2929 2929 2928 2927 2927 2926 2925 2925 2924 2924 2924 2923 2923 2923 2923 2922 2922 2923 2925 2927 2931 2933 2933 2933 2934 2935 2936 2938 2939 2940 2939 2940 2942 2943 2944 2946 2947 2948 2950 2952 2953 2956 2958 2959 2961 2962 2963 2965 2966 2968 2968 2970 2971 2972 2973 2975 2977 2978 2979 2980 2981 2983 2983 2985 2986 2987 2988 2989 2990 2991 2993 2994 2995 2996 2997 2998
2928 2928 2928 2927 2926 2926 2926 2925 2925 2925 2924 2923 2923 2922 2921 2920 2920 2920 2919 2919 2918 2919 2918 2918 2918 2917 2917 2918 2918 2919 2922 2925 2927 2926 2927 2929 2930 2932 2933 2933 2933 2934 2935 2937 2939 2940 2942 2943 2944 2946 2948 2951 2953 2955 2956 2958 2959 2960 2962 2963 2965 2966 2967 2968 2969 2971 2973 2974 2976 2977 2978 2979 2980 2982 2983 2984 2985 2986 2988 2989 2990 2991 2993 2993 2994 2995
2923 2923 2923 2923 2922 2921 2920 2920 2920 2920 2920 2918 2917 2916 2916 2915 2914 2914 2914 2914 2914 2914 2914 2913 2913 2913 2913 2913 2914 2915 2917 2918 2919 2920 2920 2922 2923 2925 2926 2927 2928 2928 2929 2931 2933 2935 2936 2938 2939 2941 2943 2945 2948 2950 2952 2953 2954 2956 2958 2959 2960 2962 2963 2964 2966 2968 2969 2971 2972 2973 2975 2976 2977 2978 2980 2981 2982 2983 2985 2986 2987 2988 2990 2991 2992 2993
2919 2918 2918 2918 2918 2917 2915 2914 2915 2915 2915 2913 2912 2911 2910 2910 2909 2909 2909 2908 2908 2908 2908 2908 2908 2908 2908 2909 2910 2911 2913 2914 2915 2914 2914 2914 2916 2917 2919 2921 2922 2923 2923 2925 2927 2929 2931 2932 2933 2935 2937 2939 2942 2944 2946 2948 2950 2951 2953 2954 2956 2958 2959 2960 2962 2964 2966 2967 2969 2970 2971 2973 2974 2975 2977 2978 2979 2981 2982 2983 2984 2985 2987 2988 2989 2990
2915 2914 2913 2913 2913 2912 2911 2910 2910 2910 2910 2909 2908 2907 2905 2905 2905 2904 2903 2903 2903 2903 2903 2903 2903 2903 2903 2904 2905 2906 2907 2910 2911 2911 2910 2909 2908 2909 2913 2915 2917 2917 2917 2919 2922 2924 2925 2926 2927 2929 2932 2933 2936 2938 2940 2942 2944 2946 2948 2950 2951 2953 2955 2956 2958 2960 2962 2964 2965 2967 2968 2969 2971 2972 2973 2975 2976 2978 2979 2980 2982 2983 2984 2985 2986 2987
2912 2911 2910 2909 2909 2908 2907 2906 2906 2905 2905 2904 2903 2902 2901 2900 2900 2899 2898 2898 2898 2898 2897 2896 2896 2897 2898 2898 2899 2901 2902 2903 2905 2906 2907 2905 2903 2903 2906 2909 2911 2911 2911 2913 2916 2918 2920 2921 2922 2924 2926 2928 2930 2932 2933 2936 2938 2941 2943 2945 2947 2949 2951 2952 2954 2956 2958 2960 2962 2963 2964 2966 2967 2969 2970 2972 2973 2974 2976 2977 2978 2980 2981 2983 2984 2985
2908 2907 2906 2905 2904 2903 2903 2902 2901 2900 2900 2899 2898 2898 2897 2896 2895 2894 2893 2893 2893 2892 2891 2891 2891 2891 2891 2893 2894 2896 2897 2899 2900 2900 2900 2899 2898 2899 2902 2903 2905 2905 2905 2908 2910 2913 2914 2915 2917 2919 2921 2923 2924 2926 2928 2930 2933 2935 2938 2940 2942 2944 2946 2948 2950 2953 2954 2956 2958 2960 2961 2962 2964 2965 2967 2968 2970 2972 2973 2974 2976 2977 2978 2980 2981 2982
2903 2902 2901 2900 2899 2898 2898 2897 2896 2895 2895 2894 2893 2893 2892 2892 2891 2890 2889 2888 2888 2887 2886 2886 2885 2884 2885 2887 2888 2890 2891 2894 2896 2896 2895 2893 2893 2895 2899 2900 2900 2900 2900 2901 2904 2907 2909 2910 2912 2914 2916 2917 2919 2921 2923 2925 2927 2929 2932 2935 2938 2940 2942 2944 2946 2948 2950 2953 2954 2956 2958 2959 2960 2962 2963 2965 2967 2968 2970 2972 2973 2974 2976 2977 2978 2980
2899 2898 2897 2896 2895 2894 2893 2893 2892 2891 2890 2889 2888 2887 2887 2886 2886 2885 2884 2883 2883 2883 2883 2882 2880 2879 2879 2881 2882 2883 2885 2888 2891 2892 2891 2890 2889 2891 2894 2898 2898 2896 2895 2896 2898 2901 2904 2905 2907 2909 2911 2913 2914 2916 2918 2920 2922 2924 2927 2930 2933 2935 2938 2940 2942 2944 2946 2948 2950 2952 2953 2955 2957 2958 2960 2962 2963 2965 2967 2968 2970 2971 2973 2974 2976 2977
2895 2894 2893 2892 2891 2890 2889 2888 2888 2887 2886 2885 2884 2883 2882 2881 2879 2878 2877 2877 2878 2879 2879 2877 2875 2874 2875 2877 2877 2877 2878 2882 2885 2886 2887 2886 2886 2886 2888 2891 2893 2893 2892 2891 2892 2895 2898 2900 2902 2904 2906 2908 2909 2911 2913 2915 2917 2919 2922 2925 2928 2931 2934 2936 2938 2940 2942 2944 2946 2948 2949 2951 2953 2955 2957 2958 2960 2962 2964 2965 2967 2968 2970 2972 2973 2975
2890 2889 2889 2888 2887 2886 2885 2884 2883 2883 2882 2881 2880 2879 2878 2876 2874 2872 2870 2871 2873 2874 2873 2872 2871 2871 2871 2872 2872 2873 2874 2876 2878 2880 2882 2882 2882 2881 2881 2884 2887 2888 2887 2887 2887 2889 2893 2895 2897 2898 2901 2903 2905 2906 2908 2910 2913 2915 2917 2920 2923 2926 2929 2931 2933 2935 2937 2939 2942 2943 2945 2947 2949 2951 2953 2955 2957 2958 2960 2962 2964 2965 2967 2968 2970 2971
2885 2884 2883 2883 2882 2881 2880 2879 2878 2878 2877 2877 2876 2875 2873 2872 2869 2867 2866 2867 2868 2868 2867 2866 2866 2867 2867 2867 2867 2868 2869 2870 2872 2874 2877 2878 2876 2875 2876 2880 2883 2883 2883 2883 2883 2885 2888 2890 2891 2893 2896 2898 2900 2902 2904 2906 2908 2910 2912 2915 2918 2921 2924 2927 2929 2931 2933 2935 2937 2939 2942 2943 2946 2948 2949 2951 2953 2955 2957 2959 2960 2962 2964 2965 2966 2968
2880 2879 2878 2877 2876 2876 2875 2874 2873 2872 2872 2871 2871 2870 2869 2868 2865 2863 2862 2863 2863 2862 2861 2860 2861 2862 2863 2863 2863 2863 2863 2865 2867 2870 2872 2873 2871 2870 2872 2876 2878 2878 2879 2880 2881 2881 2882 2883 2885 2888 2891 2893 2895 2898 2900 2902 2903 2906 2908 2910 2913 2916 2919 2922 2924 2927 2929 2931 2933 2935 2938 2940 2942 2944 2946 2948 2950 2952 2953 2955 2957 2958 2960 2962 2963 2965
2874 2874 2873 2871 2870 2869 2868 2868 2867 2866 2866 2865 2865 2865 2864 2863 2861 2860 2859 2858 2858 2857 2856 2856 2856 2857 2858 2859 2859 2858 2858 2859 2863 2866 2868 2868 2866 2865 2868 2872 2872 2872 2874 2877 2878 2877 2876 2878 2880 2884 2887 2889 2891 2893 2895 2898 2899 2902 2904 2906 2909 2911 2914 2917 2920 2923 2925 2927 2929 2932 2934 2936 2938 2940 2942 2944 2946 2948 2950 2952 2953 2955 2957 2958 2960 2962
2869 2868 2866 2865 2864 2863 2863 2862 2861 2860 2860 2859 2859 2859 2858 2858 2857 2856 2855 2854 2853 2852 2852 2851 2851 2852 2853 2854 2854 2853 2853 2855 2858 2862 2863 2863 2862 2861 2864 2867 2867 2867 2869 2872 2873 2873 2873 2874 2876 2878 2882 2884 2887 2888 2891 2893 2895 2898 2900 2902 2904 2907 2910 2913 2916 2919 2921 2923 2926 2928 2930 2932 2934 2936 2938 2940 2943 2945 2947 2948 2950 2951 2953 2955 2957 2958
2863 2862 2860 2859 2858 2858 2857 2856 2855 2855 2854 2854 2853 2853 2853 2852 2851 2851 2850 2849 2849 2848 2848 2847 2847 2847 2848 2848 2848 2848 2849 2851 2854 2857 2858 2859 2858 2857 2859 2862 2863 2863 2865 2867 2868 2870 2871 2872 2873 2874 2877 2880 2882 2884 2887 2889 2891 2893 2895 2898 2900 2903 2906 2909 2913 2915 2917 2920 2922 2924 2926 2928 2930 2932 2934 2936 2939 2941 2943 2945 2946 2948 2950 2952 2953 2956
2857 2856 2855 2854 2853 2852 2851 2850 2850 2849 2849 2849 2848 2848 2848 2847 2846 2846 2845 2845 2844 2844 2843 2843 2843 2843 2843 2843 2843 2844 2845 2847 2850 2852 2854 2855 2854 2854 2855 2857 2858 2860 2862 2863 2865 2866 2868 2869 2870 2871 2873 2875 2878 2879 2882 2884 2886 2888 2891 2894 2896 2899 2902 2905 2908 2911 2913 2916 2918 2920 2922 2924 2927 2928 2930 2933 2935 2938 2940 2941 2943 2945 2947 2948 2951 2953
2852 2851 2850 2849 2848 2847 2846 2846 2845 2845 2844 2844 2844 2843 2843 2843 2842 2841 2840 2840 2840 2839 2839 2838 2838 2838 2839 2839 2839 2839 2841 2843 2846 2848 2849 2850 2851 2851 2852 2853 2854 2856 2858 2859 2861 2862 2864 2865 2867 2867 2868 2871 2873 2875 2877 2879 2881 2884 2887 2889 2892 2895 2898 2901 2904 2907 2909 2912 2914 2916 2918 2920 2922 2924 2926 2929 2932 2934 2937 2938 2940 2942 2944 2946 2948 2949
2847 2846 2845 2844 2843 2843 2842 2841 2841 2840 2840 2840 2839 2839 2839 2838 2838 2837 2836 2836 2835 2835 2834 2834 2834 2834 2834 2835 2835 2835 2836 2838 2841 2844 2845 2845 2847 2848 2849 2849 2850 2852 2853 2854 2856 2858 2860 2862 2863 2863 2864 2866 2868 2870 2872 2875 2877 2880 2883 2885 2888 2891 2894 2897 2900 2903 2905 2908 2910 2912 2913 2916 2918 2920 2922 2925 2928 2931 2934 2935 2937 2939 2941 2943 2944 2946
2843 2842 2841 2840 2840 2839 2838 2837 2837 2836 2836 2835 2835 2835 2835 2834 2833 2833 2832 2831 2831 2830 2830 2830 2830 2830 2830 2830 2831 2831 2832 2834 2837 2839 2840 2841 2842 2843 2844 2844 2846 2848 2850 2850 2851 2853 2855 2858 2859 2860 2860 2861 2863 2865 2868 2871 2873 2876 2878 2881 2884 2887 2890 2893 2896 2899 2902 2904 2906 2908 2910 2912 2914 2916 2919 2923 2926 2929 2931 2933 2934 2936 2938 2940 2942 2943
2839 2838 2837 2837 2836 2835 2834 2833 2833 2833 2833 2832 2832 2831 2831 2830 2829 2829 2828 2828 2827 2827 2826 2826 2826 2826 2826 2826 2827 2828 2829 2830 2832 2834 2835 2837 2838 2839 2839 2840 2842 2844 2846 2847 2848 2849 2852 2854 2856 2856 2856 2857 2859 2862 2865 2867 2870 2872 2874 2877 2880 2883 2886 2889 2892 2895 2898 2900 2903 2905 2908 2909 2911 2914 2917 2919 2923 2925 2928 2929 2931 2933 2934 2936 2938 2940
2835 2834 2833 2833 2833 2832 2831 2830 2829 2829 2828 2828 2828 2827 2827 2826 2826 2825 2825 2824 2823 2823 2823 2823 2822 2822 2822 2823 2823 2824 2825 2826 2827 2829 2831 2833 2834 2835 2836 2837 2838 2839 2841 2843 2846 2848 2849 2851 2852 2852 2853 2854 2856 2858 2861 2863 2866 2868 2870 2873 2877 2880 2882 2885 2888 2891 2894 2897 2900 2903 2904 2907 2909 2911 2914 2916 2919 2921 2923 2925 2927 2929 2931 2933 2935 2937
2832 2831 2830 2830 2829 2828 2827 2826 2825 2825 2825 2824 2823 2823 2823 2823 2822 2822 2821 2821 2820 2820 2819 2819 2819 2819 2818 2819 2819 2820 2821 2822 2823 2825 2827 2828 2830 2832 2833 2833 2834 2835 2837 2839 2842 2845 2847 2848 2848 2848 2850 2851 2853 2855 2857 2860 2862 2864 2867 2870 2873 2875 2878 2881 2884 2888 2890 2893 2896 2899 2901 2904 2906 2909 2911 2913 2916 2918 2920 2922 2924 2926 2928 2930 2932 2934
2828 2827 2826 2826 2825 2825 2824 2823 2822 2821 2821 2820 2819 2819 2819 2819 2819 2818 2818 2818 2817 2817 2817 2816 2816 2815 2815 2815 2816 2816 2817 2818 2819 2821 2822 2824 2826 2828 2829 2829 2830 2832 2833 2835 2838 2841 2843 2844 2844 2845 2846 2848 2850 2852 2854 2856 2859 2861 2864 2867 2869 2871 2874 2878 2881 2884 2887 2890 2893 2896 2898 2901 2904 2907 2909 2911 2914 2916 2918 2920 2922 2924 2926 2928 2929 2931
2824 2823 2823 2822 2821 2821 2820 2819 2818 2818 2817 2817 2816 2815 2815 2816 2815 2815 2814 2814 2814 2813 2814 2813 2813 2812 2812 2811 2812 2813 2813 2814 2815 2817 2818 2820 2821 2823 2825 2826 2827 2829 2830 2831 2833 2836 2839 2840 2841 2841 2843 2845 2847 2849 2851 2853 2856 2859 2861 2864 2866 2869 2873 2876 2878 2881 2883 2887 2890 2893 2896 2899 2901 2904 2906 2909 2911 2914 2916 2918 2919 2921 2923 2925 2927 2929
2821 2819 2819 2818 2817 2817 2816 2816 2815 2814 2813 2813 2812 2812 2812 2812 2812 2812 2811 2811 2810 2810 2810 2810 2810 2809 2808 2808 2808 2808 2809 2811 2812 2813 2815 2816 2818 2819 2821 2823 2824 2825 2827 2828 2829 2831 2833 2836 2837 2838 2840 2843 2845 2847 2848 2851 2854 2856 2859 2861 2864 2867 2870 2872 2874 2877 2880 2883 2886 2889 2892 2895 2898 2901 2903 2906 2909 2911 2913 2915 2917 2919 2921 2923 2925 2927
2817 2815 2814 2814 2813 2813 2813 2813 2812 2810 2810 2809 2809 2808 2808 2809 2809 2808 2808 2807 2807 2807 2807 2807 2807 2806 2806 2805 2805 2805 2806 2807 2808 2810 2811 2812 2814 2816 2818 2819 2820 2822 2823 2825 2826 2827 2828 2831 2833 2835 2838 2840 2842 2844 2846 2849 2851 2853 2856 2858 2861 2863 2864 2866 2870 2874 2877 2880 2883 2886 2889 2892 2895 2898 2900 2903 2906 2909 2911 2913 2915 2917 2919 2921 2923 2925
2813 2811 2811 2810 2809 2809 2808 2807 2807 2806 2806 2805 2805 2805 2805 2805 2805 2804 2803 2803 2803 2803 2803 2803 2803 2803 2802 2802 2802 2803 2803 2803 2805 2806 2808 2809 2811 2813 2814 2816 2817 2819 2820 2822 2823 2824 2826 2828 2830 2832 2835 2838 2840 2842 2844 2846 2849 2851 2853 2856 2858 2860 2862 2865 2868 2872 2874 2877 2880 2883 2886 2888 2891 2894 2897 2900 2903 2906 2908 2910 2913 2914 2916 2918 2920 2922
2809 2808 2807 2807 2806 2805 2805 2804 2803 2803 2803 2802 2802 2801 2801 2801 2801 2800 2800 2800 2799 2799 2799 2800 2800 2800 2799 2799 2799 2800 2800 2801 2802 2803 2805 2806 2808 2809 2811 2812 2813 2815 2817 2818 2820 2821 2823 2825 2828 2830 2833 2835 2837 2839 2841 2844 2846 2848 2851 2853 2855 2858 2860 2863 2866 2868 2871 2874 2877 2880 2883 2885 2888 2891 2894 2897 2900 2903 2905 2908 2910 2912 2914 2916 2918 2920
2806 2805 2804 2803 2803 2802 2802 2801 2801 2800 2799 2799 2798 2798 2798 2798 2798 2797 2796 2796 2796 2796 2796 2797 2797 2797 2796 2796 2797 2797 2798 2798 2799 2801 2802 2803 2805 2806 2807 2809 2811 2813 2814 2816 2817 2819 2821 2823 2825 2828 2829 2832 2834 2836 2838 2841 2843 2845 2848 2850 2852 2854 2857 2859 2862 2865 2868 2871 2874 2877 2880 2883 2886 2888 2891 2894 2897 2900 2903 2905 2908 2910 2912 2914 2916 2918
2803 2802 2801 2801 2800 2799 2799 2798 2798 2798 2797 2796 2796 2795 2795 2795 2794 2794 2793 2793 2793 2793 2793 2793 2793 2793 2793 2793 2794 2795 2796 2796 2797 2798 2799 2801 2802 2803 2804 2807 2808 2810 2811 2813 2814 2816 2818 2820 2822 2824 2825 2828 2830 2833 2836 2839 2841 2843 2844 2847 2849 2852 2854 2857 2859 2862 2866 2868 2871 2873 2877 2879 2882 2885 2888 2891 2894 2897 2900 2902 2905 2907 2909 2911 2913 2915
2800 2799 2799 2798 2798 2797 2796 2796 2796 2795 2794 2794 2793 2793 2792 2792 2792 2791 2790 2790 2790 2790 2791 2791 2791 2791 2791 2791 2792 2793 2793 2794 2795 2796 2797 2798 2799 2801 2803 2804 2806 2807 2808 2810 2812 2814 2816 2818 2819 2821 2823 2825 2828 2831 2834 2836 2838 2840 2842 2844 2847 2849 2852 2854 2857 2860 2863 2865 2868 2871 2874 2877 2879 2883 2886 2889 2891 2894 2897 2899 2902 2904 2907 2908 2910 2913
2798 2797 2796 2796 2795 2794 2794 2793 2793 2793 2792 2791 2791 2790 2790 2789 2789 2788 2788 2787 2787 2787 2788 2788 2788 2788 2788 2789 2789 2790 2791 2792 2793 2794 2795 2796 2797 2798 2800 2802 2803 2804 2806 2807 2809 2811 2813 2815 2817 2819 2821 2823 2826 2828 2831 2833 2836 2838 2840 2842 2844 2847 2849 2852 2855 2857 2860 2862 2865 2868 2871 2874 2878 2881 2884 2886 2888 2891 2894 2897 2899 2902 2904 2906 2908 2910
2795 2794 2794 2793 2792 2792 2791 2791 2790 2790 2789 2789 2788 2788 2787 2786 2786 2785 2785 2784 2784 2784 2784 2785 2785 2786 2786 2787 2788 2788 2789 2789 2790 2791 2793 2794 2795 2796 2798 2799 2801 2802 2803 2805 2806 2808 2811 2813 2815 2816 2818 2820 2823 2826 2828 2830 2833 2835 2838 2839 2842 2844 2847 2850 2852 2855 2858 2860 2862 2865 2868 2871 2874 2877 2880 2883 2886 2889 2892 2894 2897 2899 2901 2903 2905 2908